AO-07 1 07530U 74089B 21287.48658427 -.00000025 00000-0 12936-3 0 9999 2 07530 101.8706 261.9247 0012245 152.0148 328.0510 12.53650796146640 UO-11 1 14781U 84021B 21287.52527802 .00000277 00000-0 39932-4 0 9993 2 14781 97.6005 281.5471 0009701 56.0802 304.1334 14.83341110 3586 LO-19 1 20442U 90005G 21287.67626382 .00000030 00000-0 27403-4 0 9999 2 20442 98.7561 244.3045 0011919 165.5376 194.6151 14.33000965657967 HUBBLE 1 20580U 90037B 21287.49546407 .00001061 00000-0 53066-4 0 9995 2 20580 28.4712 357.3438 0002359 264.7218 115.0316 15.09779334529262 MET-2/21 1 22782U 93055A 21287.73591811 .00000077 00000-0 55847-4 0 9995 2 22782 82.5523 209.2398 0021610 320.1137 74.6713 13.83840972420298 AO-27 1 22825U 93061C 21287.52660849 .00000012 00000-0 22512-4 0 9997 2 22825 98.9134 308.0392 0009269 52.8754 307.3273 14.30127275463276 IO-26 1 22826U 93061D 21287.53870261 .00000017 00000-0 24307-4 0 9999 2 22826 98.9076 307.9495 0009618 40.7534 319.4365 14.30467859463253 FO-29 1 24278U 96046B 21287.42408357 -.00000057 00000-0 -21826-4 0 9998 2 24278 98.5536 339.5695 0350000 201.2230 157.4082 13.53106764242336 NOAA-15 1 25338U 98030A 21287.71453532 .00000048 00000-0 38468-4 0 9996 2 25338 98.6736 315.1231 0009351 296.0486 63.9731 14.26063118218249 GO-32 1 25397U 98043D 21287.59824742 .00000012 00000-0 24841-4 0 9997 2 25397 98.7825 232.8793 0002359 93.4118 266.7330 14.23718069208666 ISS 1 25544U 98067A 21287.86931082 .00003993 00000-0 81478-4 0 9993 2 25544 51.6410 110.9446 0004134 113.2584 24.1105 15.48679764307145 NO-44 1 26931U 01043C 21287.58439040 .00000003 00000-0 32831-4 0 9996 2 26931 67.0520 332.9835 0005574 272.4585 87.5878 14.30636844 46237 SO-50 1 27607U 02058C 21287.49823871 .00000178 00000-0 45874-4 0 9997 2 27607 64.5559 334.2975 0055502 346.6352 13.3277 14.75802845 12074 CO-55 1 27844U 03031E 21287.50364598 .00000105 00000-0 66812-4 0 9995 2 27844 98.6823 293.9185 0010997 93.9645 266.2790 14.22339731948943 CO-57 1 27848U 03031J 21287.53237339 .00000085 00000-0 58255-4 0 9993 2 27848 98.6876 294.5030 0010832 106.0790 254.1581 14.21912842948769 RS-22 1 27939U 03042A 21287.67520959 .00000366 00000-0 74025-4 0 9999 2 27939 98.1580 64.0565 0011611 262.8018 97.1865 14.67038343965001 NOAA-18 1 28654U 05018A 21287.65161940 .00000074 00000-0 64425-4 0 9997 2 28654 98.9819 352.9214 0013361 307.9477 52.0487 14.12646512845362 CO-58 1 28895U 05043F 21287.62724765 .00000354 00000-0 76445-4 0 9995 2 28895 98.0756 58.3766 0016559 190.8739 169.2108 14.63978124851676 Falconsat-3 1 30776U 07006E 21287.66885107 .00009942 00000-0 22599-3 0 9991 2 30776 35.4346 53.3224 0002818 281.8363 78.2049 15.42246404811517 CO-65 1 32785U 08021C 21287.63154237 .00000730 00000-0 83462-4 0 9994 2 32785 97.6255 261.9381 0012253 335.0050 25.0573 14.88838897729970 AAUSAT2 1 32788U 08021F 21287.50464019 .00001449 00000-0 13458-3 0 9990 2 32788 97.5140 277.2381 0010424 225.0695 134.9681 14.95829594731656 DO-64 1 32789U 08021G 21287.55522808 .00004064 00000-0 25622-3 0 9999 2 32789 97.3682 318.3158 0013350 93.4201 266.8556 15.09595758734899 CO-66 1 32791U 08021J 21287.44510223 .00001051 00000-0 11006-3 0 9992 2 32791 97.5840 267.5463 0011703 293.3669 66.6318 14.91575033730514 RS-30 1 32953U 08025A 21287.74526948 .00000021 00000-0 80971-4 0 9994 2 32953 82.5068 336.7503 0020692 78.8529 281.4879 12.43105002607806 PRISM 1 33493U 09002B 21287.71071936 .00001744 00000-0 15324-3 0 9991 2 33493 98.2017 256.1059 0013937 250.6966 109.2748 14.97946945692181 NOAA-19 1 33591U 09005A 21287.76803801 .00000053 00000-0 53680-4 0 9992 2 33591 99.1775 311.3969 0014372 154.4702 205.7182 14.12500682653764 SRMSAT 1 37841U 11058D 21287.76960024 .00000335 00000-0 38692-4 0 9995 2 37841 19.9724 299.9215 0011912 163.6411 354.0821 14.10707089516732 HRBE 1 37855U 11061F 21287.65335558 .00004682 00000-0 22690-3 0 9999 2 37855 101.7225 272.9851 0164972 75.9684 285.9807 15.08322196544616 RS-40 1 38735U 12041C 21287.75875010 .00000001 00000-0 -66514-4 0 9995 2 38735 82.4765 58.6903 0017268 183.1700 176.9283 12.42583190418009 ZACUBE-1 1 39417U 13066B 21287.72148486 .00000604 00000-0 80907-4 0 9998 2 39417 97.6063 265.9514 0059641 129.1682 231.4852 14.81623592426731 Delfi-N3xt 1 39428U 13066N 21287.55851433 .00001386 00000-0 22455-3 0 9995 2 39428 97.7891 228.0367 0119313 344.2783 15.4730 14.68172222422627 GOMX-1 1 39430U 13066Q 21287.67334425 .00000459 00000-0 90657-4 0 9998 2 39430 97.8105 203.8849 0151695 99.2139 262.6267 14.59693029420437 LO-74 1 39440U 13066AA 21287.47143529 .00000494 00000-0 74925-4 0 9999 2 39440 97.6913 251.0339 0078847 208.5243 151.1642 14.76347679423988 AO-73 1 39444U 13066AE 21287.69933301 .00000728 00000-0 94168-4 0 9993 2 39444 97.5962 268.3135 0058834 119.1163 241.5959 14.82552670425693 SPROUT 1 39770U 14029E 21287.72431086 .00002055 00000-0 22577-3 0 9991 2 39770 97.9259 38.9753 0008853 167.4291 192.7159 14.88744848401081 DTUSAT-2 1 40030U 14033W 21287.56424475 .00000808 00000-0 91575-4 0 9992 2 40030 97.9179 214.7952 0012639 137.6579 222.5615 14.89116363397554 EO-80 1 40032U 14033Y 21287.59792796 .00000797 00000-0 90453-4 0 9992 2 40032 97.9186 214.8375 0012600 138.3064 221.9115 14.89077569397540 HODOYOSHI-1 1 40299U 14070B 21287.86960872 .00002152 00000-0 88871-4 0 9998 2 40299 97.2753 358.1712 0011066 288.3353 182.8984 15.25034318385617 FIREBIRD FU3 1 40377U 15003B 21287.73948497 .00008216 00000-0 28844-3 0 9997 2 40377 99.1138 94.1707 0115180 132.6501 228.4509 15.23604806370955 FIREBIRD FU4 1 40378U 15003C 21287.71170957 .00007459 00000-0 26170-3 0 9992 2 40378 99.1143 94.2984 0115248 132.5218 228.5818 15.23668973370958 GRIFEX 1 40379U 15003D 21287.41549535 .00005600 00000-0 22156-3 0 9998 2 40379 99.1116 82.2029 0126368 168.6921 191.7196 15.18885610370247 NO-84 1 40654U 15025D 21286.36583832 .00177263 21229-4 74745-3 0 1874 2 40654 54.9718 200.8232 0053628 26.7217 333.7079 15.82878076 25631 XW-2A 1 40903U 15049E 21287.80748565 .00008538 00000-0 17402-3 0 9999 2 40903 97.2219 341.9108 0010289 304.5265 167.1233 15.46419586341234 XW-2C 1 40906U 15049H 21287.77771935 .00001933 00000-0 10080-3 0 9992 2 40906 97.4905 288.6880 0015903 129.4951 45.0119 15.17052756335655 XW-2D 1 40907U 15049J 21287.73433919 .00002496 00000-0 12790-3 0 9991 2 40907 97.4896 288.4829 0015080 124.9914 349.5552 15.17417353335685 LILACSAT-2 1 40908U 15049K 21287.75265247 .00001372 00000-0 77630-4 0 9998 2 40908 97.5100 286.1684 0016777 142.7156 32.0848 15.14624435335285 XW-2E 1 40909U 15049L 21287.55527282 .00003539 00000-0 16683-3 0 9994 2 40909 97.4690 292.4661 0014857 113.0765 6.1395 15.20056922336027 XW-2F 1 40910U 15049M 21287.80512174 .00003666 00000-0 17512-3 0 9991 2 40910 97.4756 291.8013 0015673 111.1362 61.5397 15.19557124335849 XW-2B 1 40911U 15049N 21287.54864495 .00002417 00000-0 12429-3 0 9994 2 40911 97.4895 288.9631 0015145 127.3763 1.7697 15.17328471335540 DCBB 1 40912U 15049P 21287.72178060 .00004181 00000-0 18470-3 0 9993 2 40912 97.4453 296.1037 0015966 85.9906 27.2791 15.22165993336331 TW-1A 1 40928U 15051D 21287.78061970 .00013960 00000-0 27197-3 0 9991 2 40928 97.0700 309.8897 0008009 201.1472 277.1431 15.47615968340134 IO-86 1 40931U 15052B 21286.36630623 .00000723 00000-0 11414-4 0 9995 2 40931 5.9955 131.4460 0013657 276.1121 262.8027 14.76694506326751 ATHENOXAT-1 1 41168U 15077C 21286.22144676 .00005099 00000-0 21943-3 0 9996 2 41168 14.9887 114.8087 0010997 17.6676 312.0760 15.16317696322671 ChubuSat-2 1 41338U 16012B 21286.33905190 .00000850 00000-0 58818-4 0 9995 2 41338 31.0021 156.2301 0013751 222.6455 137.3113 15.00639207310320 ChubuSat-3 1 41339U 16012C 21287.68099388 .00000790 00000-0 54024-4 0 9996 2 41339 31.0103 144.8055 0013398 244.4132 115.5132 15.00779727310525 Horyu-4 1 41340U 16012D 21287.57694671 .00001261 00000-0 87096-4 0 9991 2 41340 31.0040 127.5268 0013916 276.1956 83.7095 15.02074867310713 e-st@r-II 1 41459U 16025D 21287.82039501 .00003895 00000-0 18855-3 0 9990 2 41459 98.1588 71.3157 0158154 20.5771 340.1762 15.08858787300412 AAUSAT4 1 41460U 16025E 21287.66016190 .00006651 00000-0 30216-3 0 9991 2 41460 98.1584 75.6506 0143923 2.9859 357.2269 15.12290008300720 LO-87 1 41557U 16033B 21287.71928369 .00005583 00000-0 19361-3 0 9994 2 41557 97.3926 21.0356 0013069 165.3461 341.6421 15.30142849299763 NuSat2 1 41558U 16033C 21287.87646164 .00005801 00000-0 18838-3 0 9993 2 41558 97.4059 25.5816 0012254 156.7407 312.0482 15.32260421300009 Lapan A3 1 41603U 16040E 21287.81072867 .00000466 00000-0 24589-4 0 9992 2 41603 97.2424 330.1289 0011994 309.0224 164.2278 15.20126823294717 Pratham 1 41783U 16059A 21287.45681764 .00000144 00000-0 36800-4 0 9995 2 41783 97.9511 333.4051 0032512 229.0230 130.8159 14.63175286269655 TY-1 1 41844U 16066D 21287.81769208 .00003175 00000-0 12512-3 0 9991 2 41844 97.3991 296.8255 0016227 78.2631 96.5029 15.26209990274101 CAS-2T 1 41847U 16066G 21287.64889863 .00000335 00000-0 61194-4 0 9991 2 41847 98.5880 347.1975 0364305 224.4009 132.7437 14.38252146259012 EO-88 1 42017U 17008BX 21287.44383961 .00004705 00000-0 16958-3 0 9996 2 42017 97.3041 352.8922 0007048 57.1267 303.0650 15.29009106259431 CAS-4B 1 42759U 17034B 21287.85768448 .00001480 00000-0 10162-3 0 9998 2 42759 43.0171 244.5426 0007693 199.2184 201.4505 15.10443331239209 CAS-4A 1 42761U 17034D 21287.60118968 .00001341 00000-0 93148-4 0 9992 2 42761 43.0175 244.9229 0008493 200.6660 330.4817 15.10528301239161 NIUSat 1 42766U 17036B 21287.56841084 .00003028 00000-0 13037-3 0 9998 2 42766 97.2382 329.3564 0016512 113.6673 246.6299 15.23219503239342 Aalto 1 1 42775U 17036L 21287.54837668 .00002763 00000-0 11979-3 0 9997 2 42775 97.2347 329.5196 0015076 112.6973 247.5860 15.23078293239323 URSA MAIOR 1 42776U 17036M 21287.52877114 .00003063 00000-0 13129-3 0 9999 2 42776 97.2359 330.0381 0014850 112.1314 248.1501 15.23385480239343 Max Valier Sat 1 42778U 17036P 21287.55461598 .00003166 00000-0 13293-3 0 9995 2 42778 97.2428 332.2083 0013424 113.5223 246.7427 15.24084108239429 Pegasus 1 42784U 17036V 21287.55421841 .00003819 00000-0 15541-3 0 9992 2 42784 97.2379 332.7567 0012943 115.5480 244.7098 15.25019800239504 NUDATSat 1 42787U 17036Y 21287.52942533 .00005931 00000-0 22418-3 0 9996 2 42787 97.2432 335.5611 0011128 104.4878 255.7604 15.27287958239508 SUCHAI 1 1 42788U 17036Z 21287.55295161 .00004691 00000-0 18517-3 0 9995 2 42788 97.2388 333.9090 0012473 112.5508 247.7052 15.25936480239648 SKCUBE 1 42789U 17036AA 21287.53898600 .00004398 00000-0 17546-3 0 9996 2 42789 97.2379 333.5466 0012375 113.2744 246.9798 15.25616677239543 VZLUSAT 1 1 42790U 17036AB 21287.39482440 .00005237 00000-0 19843-3 0 9998 2 42790 97.2415 335.4151 0011694 109.0488 251.2019 15.27255454239638 VENTA 1 1 42791U 17036AC 21287.39454560 .00003929 00000-0 15755-3 0 9995 2 42791 97.2377 333.4040 0012043 114.1156 246.1343 15.25512345239512 Robusta 1B 1 42792U 17036AD 21287.55363924 .00004602 00000-0 18195-3 0 9997 2 42792 97.2384 333.9898 0011980 112.9946 247.2558 15.25894169239583 D-SAT 1 42794U 17036AF 21287.49616534 .00000479 00000-0 46227-4 0 9996 2 42794 97.4588 301.0534 0124992 187.3207 172.6192 14.91717050234800 TechnoSat 1 42829U 17042E 21287.55017929 .00000414 00000-0 46640-4 0 9990 2 42829 97.4501 150.6512 0015646 107.3809 252.9123 14.91365943231435 QIKCOM-1 1 42983U 98067NF 21287.76058190 .00018368 00000-0 15572-3 0 9991 2 42983 51.6369 12.0890 0003329 64.8244 295.3098 15.69735999226125 AO-91 1 43017U 17073E 21287.48700961 .00001779 00000-0 14242-3 0 9998 2 43017 97.6929 186.6903 0252421 271.9567 85.2757 14.79846414210729 EcAMSat 1 43019U 98067NG 21287.51816055 .00114367 16098-4 33629-3 0 9994 2 43019 51.6372 323.7865 0005362 38.8601 321.2791 15.92512693309065 PICSAT 1 43132U 18004X 21287.45606653 .00004461 00000-0 17341-3 0 9995 2 43132 97.3997 0.9146 0009876 141.6508 218.5434 15.26517008208837 AO-92 1 43137U 18004AC 21287.45262410 .00003588 00000-0 14306-3 0 9996 2 43137 97.3968 0.2405 0009632 143.5671 216.6224 15.25803929208805 TianYi 2 1 43155U 18008A 21287.80390117 .00002342 00000-0 13663-3 0 9997 2 43155 97.3888 349.1289 0015347 276.5954 193.5541 15.12816489206110 Zhou Enlai 1 43156U 18008B 21287.83502897 .00003063 00000-0 17951-3 0 9996 2 43156 97.3935 348.9987 0012606 276.1715 195.4092 15.12456930206058 TianYi 6 1 43158U 18008D 21287.82423361 .00002379 00000-0 14271-3 0 9996 2 43158 97.3891 347.3888 0011887 278.1434 194.0610 15.11830593205975 S-Net D 1 43186U 18014G 21287.45948650 .00000354 00000-0 35561-4 0 9993 2 43186 97.6667 192.8474 0011950 47.0525 313.1697 14.97171670202107 S-Net B 1 43187U 18014H 21287.65995342 .00000385 00000-0 38256-4 0 9994 2 43187 97.6664 193.0061 0011928 46.3285 313.8923 14.97171321202135 S-Net A 1 43188U 18014J 21287.66009511 .00000391 00000-0 38758-4 0 9994 2 43188 97.6667 193.0565 0011937 46.4530 313.7682 14.97170257202130 S-Net C 1 43189U 18014K 21287.46009339 .00000376 00000-0 37498-4 0 9994 2 43189 97.6664 192.8015 0011932 46.9746 313.2473 14.97169333200655 FMN 1 1 43192U 18015A 21287.82506559 .00010457 00000-0 36989-3 0 9999 2 43192 97.5052 63.9861 0013851 175.8865 324.6355 15.29265059205829 Shaonian Xing 1 43199U 18015H 21287.83269788 .00007005 00000-0 25540-3 0 9993 2 43199 97.4831 60.6853 0015260 186.0865 300.8869 15.28380205205876 SurfSat 1 43614U 18070B 21287.43567150 .00008333 00000-0 18480-3 0 9996 2 43614 93.0318 355.6353 0010900 258.1488 101.8546 15.43686775173019 CP-7 DAVE 1 43615U 18070C 21287.21813187 .00008182 00000-0 18365-3 0 9991 2 43615 93.0324 355.4840 0011096 259.6556 100.3450 15.43326275172962 ELFIN-B 1 43616U 18070D 21287.43855617 .00013981 00000-0 27484-3 0 9995 2 43616 93.0273 355.9360 0010679 252.1134 107.8960 15.47195702173157 ELFIN-A 1 43617U 18070E 21287.61548257 .00015909 00000-0 30559-3 0 9994 2 43617 93.0327 356.9772 0010256 247.0457 112.9720 15.47861176173200 CubeBel-1 1 43666U 18083E 21287.77010104 .00003432 00000-0 16279-3 0 9995 2 43666 97.4481 314.6215 0016059 111.0110 10.9587 15.19844649164134 Changshagaoxin 1 43669U 18083H 21287.85411711 .00003448 00000-0 16970-3 0 9991 2 43669 97.4397 311.4148 0012208 106.3006 356.5604 15.18596069164000 Ten-Koh 1 43677U 18084G 21287.61571950 .00000543 00000-0 61385-4 0 9991 2 43677 97.9351 51.0629 0016068 7.1066 353.0376 14.90549999161056 PO-101 1 43678U 18084H 21287.78067184 .00000444 00000-0 49781-4 0 9995 2 43678 97.9390 53.7833 0010297 25.3799 334.7933 14.91807229161227 IRVINE 01 1 43693U 18088D 21287.49336684 .00007350 00000-0 27603-3 0 9999 2 43693 85.0301 115.7743 0014157 310.1730 49.8274 15.26910742162599 QO-100 1 43700U 18090A 21287.53660477 .00000127 00000-0 00000-0 0 9990 2 43700 0.0037 111.8178 0002270 111.1717 19.2813 1.00272374 10565 Reaktor Hello World 1 43743U 18096AA 21287.61639158 .00004555 00000-0 16153-3 0 9992 2 43743 97.3774 4.2101 0016119 209.1113 150.9230 15.29472248160341 MinXSS-2 1 43758U 18099A 21287.14881011 .00001506 00000-0 13828-3 0 9995 2 43758 97.6563 355.8242 0015728 17.5968 342.5795 14.96233952156262 AO-95 1 43770U 18099N 21287.15482330 .00000920 00000-0 88072-4 0 9994 2 43770 97.6541 354.6596 0015063 26.6282 333.5710 14.95474962156199 RANGE-B 1 43772U 18099Q 21287.42541994 .00001193 00000-0 11179-3 0 9994 2 43772 97.6634 356.1107 0014270 13.3902 346.7696 14.95821085156247 RANGE-A 1 43773U 18099R 21287.43791992 .00000239 00000-0 26746-4 0 9998 2 43773 97.6470 354.1358 0013700 13.1793 346.9783 14.95325524156229 MOVE-II 1 43780U 18099Y 21287.46647486 .00001766 00000-0 16163-3 0 9994 2 43780 97.6560 355.6455 0013565 22.5660 337.6155 14.96166424156264 SNUSat 2 1 43782U 18099AA 21287.43638066 .00000366 00000-0 37959-4 0 9999 2 43782 97.6539 355.3172 0012906 12.2807 347.8726 14.95704350156253 SnugLite 1 43784U 18099AC 21287.43431766 .00000447 00000-0 45069-4 0 9990 2 43784 97.6503 355.0113 0015384 18.7385 341.4400 14.95843042156276 ITASat 1 1 43786U 18099AE 21287.18521554 .00000620 00000-0 60681-4 0 9999 2 43786 97.6558 355.4500 0015388 18.8052 341.3734 14.95745588156239 EAGLET 1 1 43790U 18099AJ 21287.45979154 .00000660 00000-0 63722-4 0 9990 2 43790 97.6547 356.1772 0013781 22.1174 338.0639 14.96080207156002 ESEO 1 43792U 18099AL 21287.46478552 .00000640 00000-0 62370-4 0 9995 2 43792 97.6511 355.6748 0013580 20.0656 340.1096 14.95805351156051 CSIM 1 43793U 18099AM 21287.41571750 .00002087 00000-0 18686-3 0 9992 2 43793 97.6558 356.2355 0012980 17.1030 343.0626 14.96837974156069 Astrocast 0.1 1 43798U 18099AS 21287.45754984 .00000667 00000-0 63925-4 0 9992 2 43798 97.6554 356.4233 0012110 2.3199 357.8077 14.96337640156310 JO-97 1 43803U 18099AX 21287.46287719 .00001185 00000-0 11050-3 0 9994 2 43803 97.6519 355.4615 0015204 18.0717 342.1041 14.96023685156283 Suomi 100 1 43804U 18099AY 21287.47095225 .00001363 00000-0 12640-3 0 9999 2 43804 97.6518 355.4254 0015338 18.6140 341.5639 14.95988539156290 Al Farabi 2 1 43805U 18099AZ 21287.58693277 .00000853 00000-0 80462-4 0 9994 2 43805 97.6531 355.8243 0015572 15.9513 344.2205 14.96245625156328 CHOMPTT 1 43855U 18104G 21287.54831075 .00003950 00000-0 15848-3 0 9998 2 43855 85.0399 214.5437 0019336 69.8031 290.5289 15.24461971157239 ISAT 1 43879U 18111D 21287.79804457 .00000622 00000-0 59237-4 0 9997 2 43879 97.6738 192.8909 0014367 64.3028 295.9694 14.96803934150901 UWE-4 1 43880U 18111E 21287.23282116 .00001535 00000-0 13806-3 0 9995 2 43880 97.6772 192.8834 0013954 68.7246 291.5464 14.97039429150851 Sparrow 1 43881U 18111F 21287.46618104 .00001037 00000-0 94803-4 0 9995 2 43881 97.6771 193.2694 0013559 64.8163 295.4464 14.97096943150897 Lume 1 1 43908U 18111AJ 21287.43858194 .00003684 00000-0 14198-3 0 9995 2 43908 97.2165 178.2743 0018666 226.0043 133.9659 15.26788021155829 FO-98 1 43933U 19003B 21287.37424762 .00024397 00000-0 81489-3 0 9998 2 43933 97.1736 324.5388 0012881 335.6769 24.3863 15.30938846152279 FO-99 1 43937U 19003F 21287.53118585 .00004289 00000-0 16647-3 0 9995 2 43937 97.1653 325.9076 0021251 313.0989 46.8471 15.26407693152422 MYSat 1 1 44045U 18092F 21287.49832958 .00010592 00000-0 25640-3 0 9992 2 44045 51.6363 204.6413 0008719 278.5701 81.4297 15.41639416149812 AstroCast 0.2 1 44083U 19018F 21287.57188300 .00002980 00000-0 12910-3 0 9995 2 44083 97.3599 346.3729 0010942 273.8690 86.1296 15.23115489141027 AISTechSat 3 1 44103U 19018AB 21287.82260330 .00003004 00000-0 12484-3 0 9994 2 44103 97.3457 347.0531 0011496 285.0620 186.6514 15.24512922141196 AISat 1 1 44104U 19018AC 21287.65326916 .00002735 00000-0 85757-4 0 9993 2 44104 97.4173 5.2197 0054348 291.5271 68.0182 15.32537705141921 Prox-1 1 44339U 19036A 21287.74480062 .00001662 00000-0 33892-3 0 9996 2 44339 24.0003 302.7777 0011582 48.7650 311.3838 14.53817967122636 Oculus-ASR 1 44348U 19036K 21287.53055519 .00031024 00000-0 40276-3 0 9997 2 44348 28.5108 59.4066 0315384 119.1779 244.0748 15.16018600126970 Armadillo 1 44352U 19036P 21287.60835632 .00059051 00000-0 68481-3 0 9990 2 44352 28.5287 27.3672 0274942 169.0416 191.6321 15.26283721127251 NO-104 1 44354U 19036R 21287.56506830 .00032238 00000-0 40699-3 0 9991 2 44354 28.5259 50.5670 0309624 131.1446 231.6299 15.17738118127059 NO-103 1 44355U 19036S 21287.44796925 .00074299 -52635-5 68663-3 0 9996 2 44355 28.5280 343.9115 0226050 239.4964 118.3138 15.39829826127712 CP9 1 44360U 19036X 21287.15023320 .00568877 11813-3 11897-2 0 9998 2 44360 28.4908 238.9396 0068819 53.4822 307.2104 15.93396099128581 Move-IIb 1 44398U 19038N 21287.54598394 .00005010 00000-0 27558-3 0 9992 2 44398 97.5945 251.1464 0022014 258.9886 100.8869 15.14322796125782 SONATE 1 44400U 19038Q 21287.78212638 .00001892 00000-0 11091-3 0 9995 2 44400 97.6030 251.1434 0022993 258.5970 101.2684 15.12831481125778 BeeSat 9 1 44412U 19038AC 21287.47719049 .00002650 00000-0 15014-3 0 9994 2 44412 97.6024 251.2144 0020083 263.8361 96.0582 15.13744010125459 JAISAT-1 1 44419U 19038F 21287.47493169 .00002639 00000-0 14757-3 0 9993 2 44419 97.6027 251.8539 0018993 261.4495 98.4585 15.14228807125802 LightSail-2 1 44420U 19036AC 21287.62450073 .00011291 00000-0 21986-2 0 9992 2 44420 24.0042 274.9410 0020988 89.4638 270.8260 14.61107651121056 Taurus 1 1 44530U 19059C 21287.66329712 .00000956 00000-0 27929-3 0 9998 2 44530 98.5512 19.0274 0015177 140.8551 219.3747 14.46229728110310 Duchifat 3 1 44854U 19089C 21287.71446376 .00001185 00000-0 10058-3 0 9992 2 44854 36.9664 115.2579 0008806 16.7712 343.3333 14.99692087101017 OPS-SAT 1 44878U 19092F 21287.53842222 .00003339 00000-0 17231-3 0 9995 2 44878 97.4776 109.3542 0014968 113.7253 246.5552 15.16930311100883 TO-108 1 44881U 19093C 21287.61064893 .00000206 00000-0 33032-4 0 9997 2 44881 97.9162 5.0971 0013662 265.8309 94.1344 14.81492182 98376 FloripaSat 1 1 44885U 19093G 21287.62848145 .00000705 00000-0 94609-4 0 9993 2 44885 97.9190 5.8853 0013183 273.3630 86.6082 14.82412331 98427 RS-44 1 44909U 19096E 21287.69890972 .00000012 00000-0 13998-5 0 9999 2 44909 82.5259 33.5673 0217696 174.0654 186.3107 12.79711267 84128 SwampSat-2 1 45115U 19071E 21286.99791377 .01081938 53825-3 29302-2 0 9999 2 45115 51.6196 136.1535 0010839 255.6257 104.3547 15.93616991 95999 HO-107 1 45119U 19071J 21287.13531434 .00006728 00000-0 19392-3 0 9992 2 45119 51.6398 181.0281 0010631 3.8113 356.2950 15.36889997 95416 Phoenix 1 45258U 98067RB 21287.73572390 .00023037 00000-0 28607-3 0 9991 2 45258 51.6374 90.8263 0004933 334.9952 25.0801 15.59886203 93807 AztechSat-1 1 45261U 98067RE 21287.67160410 .00132425 00000-0 72446-3 0 9996 2 45261 51.6312 69.2672 0006220 329.8682 30.1961 15.78905472 94100 QARMAN 1 45263U 98067RG 21287.43877074 .00057949 00000-0 48118-3 0 9999 2 45263 51.6354 80.5661 0005139 336.5501 23.5261 15.69591066 93978 Quetzal 1 1 45598U 98067RL 21287.73116905 .00052273 00000-0 49623-3 0 9999 2 45598 51.6371 85.5696 0000314 298.4915 61.6049 15.66359549 83203 BY70-2 1 45857U 20042B 21287.79416599 .00002375 00000-0 34081-3 0 9993 2 45857 97.9769 2.2881 0011347 181.8786 178.2384 14.77395342 69164 UPMSat 2 1 46276U 20061E 21287.57838204 .00001555 00000-0 82727-4 0 9997 2 46276 97.4221 358.9114 0000982 31.5273 328.6019 15.16696119 61598 AmicalSat 1 46287U 20061R 21287.47591775 .00002347 00000-0 14523-3 0 9995 2 46287 97.4774 358.0885 0003977 64.5665 295.5976 15.10767271 61313 SALSAT 1 46495U 20068K 21287.58961306 .00000446 00000-0 37079-4 0 9996 2 46495 97.6992 224.4244 0018161 32.1361 328.0984 15.03582909 57230 BY70-3 1 46839U 20079N 21287.81410604 .00008622 00000-0 25804-3 0 9992 2 46839 97.2298 359.3078 0008471 130.4359 338.5217 15.34743266 52501 SPOC 1 46921U 98067RR 21287.74910624 .00021478 00000-0 29241-3 0 9998 2 46921 51.6401 99.9886 0002001 174.8662 185.2351 15.57490544 53420 Bobcat-1 1 46922U 98067RS 21287.77359201 .00033715 00000-0 39839-3 0 9991 2 46922 51.6408 96.4321 0001971 203.3929 156.6975 15.60978114 53436 Neutron-1 1 46923U 98067RT 21287.51783916 .00020420 00000-0 27987-3 0 9998 2 46923 51.6400 101.4401 0002131 185.9981 174.0986 15.57345315 53418 CAPE 3 1 47309U 21002A 21287.49736172 .00003188 00000-0 14978-3 0 9999 2 47309 60.6854 206.7407 0045068 111.0580 249.5334 15.21316396 40998 AO-109 1 47311U 21002C 21287.34013610 .00003108 00000-0 14360-3 0 9998 2 47311 60.6852 206.0035 0040176 108.4149 252.1312 15.22152747 40967 MiTEE 1 1 47314U 21002F 21287.48077708 .00005394 00000-0 22698-3 0 9996 2 47314 60.6846 203.2176 0041597 100.8919 259.6854 15.24028895 41048 ExoCube 2 1 47319U 21002L 21287.27418109 .00003048 00000-0 14247-3 0 9997 2 47319 60.6837 206.7827 0041002 110.2388 250.3115 15.21772046 40914 UVSQ-SAT 1 47438U 21006AB 21287.13914924 .00002198 00000-0 12629-3 0 9991 2 47438 97.4746 346.1775 0013826 53.2612 306.9887 15.13472965 40005 YUSAT 1 1 47439U 21006AC 21287.14023672 .00002599 00000-0 14845-3 0 9991 2 47439 97.4749 346.1845 0013663 53.6586 306.5904 15.13518713 40008 SOMP 2b 1 47445U 21006AJ 21287.43108630 .00002273 00000-0 13110-3 0 9991 2 47445 97.4717 346.3033 0013523 56.1649 304.0867 15.13298448 40049 IDEASSat 1 47458U 21006AX 21287.12410348 .00002476 00000-0 14306-3 0 9996 2 47458 97.4808 346.2646 0012603 55.5963 304.6458 15.13157178 39991 RSP-01 1 47925U 98067SB 21287.22621434 .00018656 00000-0 28101-3 0 9992 2 47925 51.6411 109.2276 0001959 136.5482 223.5664 15.54842903 33237 TAUSAT-1 1 47926U 98067SC 21287.77512644 .00028273 00000-0 40078-3 0 9998 2 47926 51.6396 105.3841 0002664 137.6656 222.4541 15.56228399 33325 Tsuru 1 47927U 98067SD 21287.76723482 .00019838 00000-0 30334-3 0 9993 2 47927 51.6412 106.8411 0001993 132.2845 227.8315 15.54382601 33311 STARS-EC 1 47928U 98067SE 21287.77378533 .00030114 00000-0 43036-3 0 9991 2 47928 51.6405 106.1244 0005633 199.6696 160.4079 15.55961953 33309 Maya-2 1 47929U 98067SF 21287.50610833 .00018753 00000-0 28714-3 0 9996 2 47929 51.6413 108.0952 0002103 128.8499 231.2680 15.54387782 33238 OPUSAT-II 1 47930U 98067SG 21287.78511671 .00031747 00000-0 44269-3 0 9999 2 47930 51.6400 105.4624 0001588 144.6777 215.4320 15.56612491 33330 GuaraniSat-1 1 47931U 98067SH 21287.50394708 .00018505 00000-0 28313-3 0 9999 2 47931 51.6414 108.0842 0002103 128.2639 231.8541 15.54418138 33276 CubeSX-Sirius-HSE 1 47951U 21022V 21287.79446479 .00002427 00000-0 17051-3 0 9995 2 47951 97.5454 187.4898 0020482 264.4694 95.4216 15.05903797 31016 CubeSX-HSE 1 47952U 21022W 21287.85553756 .00002207 00000-0 15527-3 0 9992 2 47952 97.5458 187.5560 0020375 263.7009 96.1890 15.05943733 31022 KSU-Cubesat 1 47954U 21022Y 21287.31277463 .00001465 00000-0 10431-3 0 9997 2 47954 97.5465 187.0614 0019739 266.0799 93.8171 15.06036192 30669 GRBAlpha 1 47959U 21022AD 21287.72283889 .00002303 00000-0 16182-3 0 9997 2 47959 97.5460 187.4425 0020281 264.9030 94.9880 15.05946936 29822 Orbicraft-Zorkiy 1 47960U 21022AE 21287.91283726 .00001924 00000-0 13570-3 0 9996 2 47960 97.5476 187.6811 0019741 264.2488 95.6483 15.06020861 30540 STECCO 1 47962U 21022AG 21287.84814115 .00002568 00000-0 17455-3 0 9993 2 47962 97.5436 187.8518 0014926 261.1764 163.6096 15.07161642 29859 DO-111 1 47963U 21022AH 21287.50361575 .00004371 00000-0 28734-3 0 9990 2 47963 97.5456 187.7016 0017377 258.1004 101.8275 15.07991716 29834 MO-110 1 47964U 21022AJ 21287.46797241 .00003210 00000-0 21527-3 0 9993 2 47964 97.5450 187.5821 0018029 258.3591 101.5613 15.07442012 29809 FEES 1 48082U 21022AL 21287.46124299 .00003408 00000-0 23069-3 0 9994 2 48082 97.5462 187.4683 0014146 255.2408 104.7252 15.07094682 29505 RamSat 1 48850U 98067SL 21287.51475728 .00013693 00000-0 23285-3 0 9999 2 48850 51.6411 111.1231 0004301 216.4377 143.6321 15.51727210 18980 MO-112 1 48868U 98067SP 21287.53647297 .00028350 00000-0 44107-3 0 9994 2 48868 51.6401 110.5206 0003480 218.3090 141.7653 15.53676655 17774 TUBIN 1 48900U 21059X 21287.81822774 .00001764 00000-0 10537-3 0 9994 2 48900 97.5243 54.9632 0009273 223.8671 285.9088 15.12363249 16779 IT-SPINS 1 49017U 21013G 21287.62297955 .00002313 00000-0 11046-3 0 9997 2 49017 51.6218 132.3179 0007275 240.9996 119.0252 15.23181041 16285 CUTE 1 49263U 21088D 21287.59769875 .00002131 00000-0 16843-3 0 9991 2 49263 97.6236 355.3240 0017285 189.6129 170.4805 15.01616438 2518 OBJECT SR 1 49272U 98067SR 21287.51683503 .00014137 00000-0 25508-3 0 9994 2 49272 51.6415 112.6282 0005615 126.2595 233.8913 15.50009505 1355 Maya-3 1 49273U 98067SS 21287.51690212 .00016806 00000-0 30148-3 0 9991 2 49273 51.6416 112.6286 0005466 125.4674 234.6826 15.50023118 1352 Maya-4 1 49274U 98067ST 21287.51708547 .00016559 00000-0 29756-3 0 9991 2 49274 51.6416 112.6299 0005360 124.3156 235.8340 15.49986659 1353 CUAVA-1 1 49275U 98067SU 21287.79595010 .00020362 00000-0 36208-3 0 9998 2 49275 51.6417 111.2327 0006188 135.5215 345.4744 15.50124510 1348 /EX